Location: *
(52.2090°N, 4.1550°W)
Time: 20:50:02
(UTC+00:00)

Cosmos 468 Rocket - Pass Details

Date: 19 July 2019
Orbit: 744 x 780 km, 74.0° (Epoch: 18 August)

Event Time Altitude Azimuth Distance (km) Brightness Sun altitude
Rises 23:00:10 0° 333° (NNW) 3,246 9.1 -14.8°
Reaches altitude 10° 23:02:32 10° 332° (NNW) 2,321 7.9 -15.0°
Maximum altitude 23:07:48 76° 248° (WSW) 803 4.1 -15.2°
Enters shadow 23:11:00 24° 166° (SSE) 1,550 5.0 -15.4°
